Time,TemperatureF,DewpointF,PressureIn,WindDirection,WindDirectionDegrees,WindSpeedMPH,WindSpeedGustMPH,Humidity,HourlyPrecipIn,Conditions,Clouds,dailyrainin,SoftwareType,DateUTC
2013-09-19 00:11:00,60.0,56.0,29.77,WNW,287,0.0,0.0,88,0.00,,,0.00,,2013-09-19 07:11:00,
2013-09-19 00:21:00,60.0,57.0,29.77,WNW,287,0.0,0.0,89,0.00,,,0.00,,2013-09-19 07:21:00,
2013-09-19 00:52:00,59.0,56.0,29.77,WNW,287,0.0,1.0,89,0.00,,,0.00,,2013-09-19 07:52:00,
2013-09-19 01:11:00,59.0,55.0,29.77,WNW,287,0.0,0.0,88,0.00,,,0.00,,2013-09-19 08:11:00,
2013-09-19 01:21:00,59.0,56.0,29.77,WNW,287,0.0,0.0,90,0.00,,,0.00,,2013-09-19 08:21:00,
2013-09-19 01:52:00,59.0,56.0,29.77,WNW,287,0.0,1.0,91,0.00,,,0.00,,2013-09-19 08:52:00,
2013-09-19 02:11:00,59.0,56.0,29.77,WNW,287,0.0,0.0,91,0.00,,,0.00,,2013-09-19 09:11:00,
2013-09-19 02:21:00,59.0,56.0,29.77,WNW,287,0.0,0.0,91,0.00,,,0.00,,2013-09-19 09:21:00,
2013-09-19 02:53:00,59.0,56.0,29.76,WNW,287,0.0,0.0,90,0.00,,,0.00,,2013-09-19 09:53:00,
2013-09-19 03:12:00,59.0,56.0,29.77,WNW,287,0.0,0.0,90,0.00,,,0.00,,2013-09-19 10:12:00,
2013-09-19 03:23:00,59.0,56.0,29.77,WNW,287,0.0,0.0,89,0.00,,,0.00,,2013-09-19 10:23:00,
2013-09-19 03:42:00,58.0,55.0,29.77,WNW,287,0.0,0.0,89,0.00,,,0.00,,2013-09-19 10:42:00,
2013-09-19 03:52:00,58.0,55.0,29.76,WNW,287,0.0,0.0,89,0.00,,,0.00,,2013-09-19 10:52:00,
2013-09-19 04:11:00,57.0,54.0,29.76,WNW,287,0.0,0.0,89,0.00,,,0.00,,2013-09-19 11:11:00,
2013-09-19 04:22:00,57.0,54.0,29.76,WNW,287,0.0,0.0,90,0.00,,,0.00,,2013-09-19 11:22:00,
2013-09-19 04:52:00,57.0,54.0,29.76,WNW,287,0.0,1.0,91,0.00,,,0.00,,2013-09-19 11:52:00,
2013-09-19 05:11:00,57.0,54.0,29.76,WNW,287,0.0,1.0,91,0.00,,,0.00,,2013-09-19 12:11:00,
2013-09-19 05:21:00,57.0,54.0,29.77,WNW,287,0.0,0.0,90,0.00,,,0.00,,2013-09-19 12:21:00,
2013-09-19 05:52:00,56.0,52.0,29.77,WNW,287,0.0,0.0,88,0.00,,,0.00,,2013-09-19 12:52:00,
2013-09-19 06:11:00,56.0,53.0,29.77,WNW,287,0.0,0.0,89,0.00,,,0.00,,2013-09-19 13:11:00,
2013-09-19 06:21:00,56.0,52.0,29.77,WNW,287,0.0,0.0,88,0.00,,,0.00,,2013-09-19 13:21:00,
2013-09-19 06:52:00,56.0,53.0,29.78,WNW,287,0.0,0.0,89,0.00,,,0.00,,2013-09-19 13:52:00,
2013-09-19 07:22:00,55.0,52.0,29.79,WNW,287,0.0,0.0,90,0.00,,,0.00,,2013-09-19 14:22:00,
2013-09-19 07:52:00,57.0,54.0,29.80,WNW,287,0.0,0.0,91,0.01,,,0.01,,2013-09-19 14:52:00,
2013-09-19 08:21:00,59.0,54.0,29.80,WNW,287,0.0,0.0,84,0.01,,,0.01,,2013-09-19 15:21:00,
2013-09-19 08:53:00,62.0,55.0,29.80,WNW,287,0.0,0.0,78,0.00,,,0.01,,2013-09-19 15:53:00,
2013-09-19 09:03:00,62.0,55.0,29.80,WNW,287,0.0,0.0,78,0.00,,,0.01,,2013-09-19 16:03:00,
2013-09-19 10:53:00,72.0,59.0,29.82,WSW,254,1.0,9.0,64,0.00,,,0.01,,2013-09-19 17:53:00,
2013-09-19 11:11:00,73.0,60.0,29.81,West,260,2.0,8.0,63,0.00,,,0.01,,2013-09-19 18:11:00,
2013-09-19 11:22:00,74.0,60.0,29.81,West,272,1.0,9.0,61,0.00,,,0.01,,2013-09-19 18:22:00,
2013-09-19 11:42:00,75.0,60.0,29.81,SW,228,2.0,7.0,59,0.00,,,0.01,,2013-09-19 18:42:00,
2013-09-19 11:52:00,76.0,60.0,29.81,SW,230,4.0,6.0,58,0.00,,,0.01,,2013-09-19 18:52:00,
2013-09-19 12:12:00,76.0,60.0,29.80,West,275,4.0,8.0,58,0.00,,,0.01,,2013-09-19 19:12:00,
2013-09-19 12:52:00,78.0,61.0,29.79,South,186,3.0,9.0,55,0.00,,,0.01,,2013-09-19 19:52:00,
2013-09-19 13:12:00,79.0,61.0,29.79,West,277,2.0,9.0,54,0.00,,,0.01,,2013-09-19 20:12:00,
2013-09-19 13:42:00,81.0,61.0,29.79,WSW,246,0.0,8.0,51,0.00,,,0.01,,2013-09-19 20:42:00,
2013-09-19 13:52:00,81.0,61.0,29.78,WSW,241,3.0,9.0,50,0.00,,,0.01,,2013-09-19 20:52:00,
2013-09-19 14:11:00,81.0,61.0,29.78,SW,215,2.0,10.0,50,0.00,,,0.01,,2013-09-19 21:11:00,
2013-09-19 14:22:00,82.0,61.0,29.77,WSW,238,4.0,9.0,49,0.00,,,0.01,,2013-09-19 21:22:00,
2013-09-19 14:44:00,82.0,61.0,29.77,WSW,245,4.0,9.0,49,0.00,,,0.01,,2013-09-19 21:44:00,
2013-09-19 14:55:00,81.0,61.0,29.76,West,267,3.0,9.0,50,0.00,,,0.01,,2013-09-19 21:55:00,
2013-09-19 15:24:00,82.0,61.0,29.76,West,269,2.0,12.0,50,0.00,,,0.01,,2013-09-19 22:24:00,
2013-09-19 15:53:00,81.0,60.0,29.75,SSW,213,4.0,10.0,49,0.00,,,0.01,,2013-09-19 22:53:00,
2013-09-19 16:22:00,82.0,61.0,29.75,WSW,257,1.0,7.0,49,0.00,,,0.01,,2013-09-19 23:22:00,
2013-09-19 16:53:00,79.0,60.0,29.74,WSW,249,3.0,10.0,52,0.00,,,0.01,,2013-09-19 23:53:00,
2013-09-19 17:11:00,79.0,61.0,29.74,West,260,2.0,7.0,54,0.00,,,0.01,,2013-09-20 00:11:00,
2013-09-19 17:21:00,78.0,60.0,29.74,South,182,0.0,7.0,54,0.00,,,0.01,,2013-09-20 00:21:00,
2013-09-19 17:52:00,76.0,60.0,29.74,West,277,3.0,9.0,58,0.00,,,0.01,,2013-09-20 00:52:00,
2013-09-19 18:12:00,75.0,61.0,29.74,West,261,0.0,7.0,61,0.00,,,0.01,,2013-09-20 01:12:00,
2013-09-19 18:22:00,73.0,60.0,29.74,WSW,242,1.0,7.0,64,0.00,,,0.01,,2013-09-20 01:22:00,
2013-09-19 18:42:00,71.0,59.0,29.75,WSW,252,2.0,7.0,67,0.00,,,0.01,,2013-09-20 01:42:00,
2013-09-19 18:52:00,70.0,60.0,29.75,SW,234,0.0,4.0,70,0.00,,,0.01,,2013-09-20 01:52:00,
2013-09-19 19:11:00,68.0,59.0,29.75,WSW,241,0.0,4.0,73,0.00,,,0.01,,2013-09-20 02:11:00,
2013-09-19 19:22:00,66.0,59.0,29.75,WSW,241,0.0,2.0,77,0.00,,,0.01,,2013-09-20 02:22:00,
2013-09-19 19:52:00,64.0,58.0,29.76,WSW,242,0.0,0.0,82,0.00,,,0.01,,2013-09-20 02:52:00,
2013-09-19 20:12:00,64.0,59.0,29.77,WSW,241,0.0,0.0,83,0.00,,,0.01,,2013-09-20 03:12:00,
2013-09-19 20:22:00,63.0,58.0,29.77,WSW,242,0.0,0.0,84,0.00,,,0.01,,2013-09-20 03:22:00,
2013-09-19 20:45:00,62.0,58.0,29.78,WSW,241,0.0,0.0,86,0.00,,,0.01,,2013-09-20 03:45:00,
2013-09-19 20:56:00,61.0,57.0,29.79,WSW,242,0.0,0.0,87,0.00,,,0.01,,2013-09-20 03:56:00,
2013-09-19 21:14:00,61.0,58.0,29.79,WSW,242,0.0,1.0,89,0.00,,,0.01,,2013-09-20 04:14:00,
2013-09-19 21:24:00,61.0,58.0,29.80,WSW,241,0.0,1.0,89,0.00,,,0.01,,2013-09-20 04:24:00,
2013-09-19 21:44:00,60.0,57.0,29.80,WSW,242,0.0,0.0,90,0.00,,,0.01,,2013-09-20 04:44:00,
2013-09-19 21:53:00,60.0,57.0,29.80,WSW,241,0.0,0.0,91,0.00,,,0.01,,2013-09-20 04:53:00,
2013-09-19 22:13:00,60.0,58.0,29.80,WSW,241,0.0,0.0,92,0.00,,,0.01,,2013-09-20 05:13:00,
2013-09-19 22:23:00,60.0,58.0,29.80,WSW,241,0.0,1.0,93,0.00,,,0.01,,2013-09-20 05:23:00,
2013-09-19 22:53:00,60.0,58.0,29.80,WSW,241,0.0,0.0,94,0.00,,,0.01,,2013-09-20 05:53:00,
2013-09-19 23:12:00,60.0,58.0,29.81,WSW,241,0.0,0.0,94,0.00,,,0.01,,2013-09-20 06:12:00,
2013-09-19 23:22:00,60.0,58.0,29.81,WSW,241,0.0,0.0,94,0.00,,,0.01,,2013-09-20 06:22:00,
2013-09-19 23:52:00,59.0,57.0,29.82,WSW,241,0.0,0.0,94,0.00,,,0.01,,2013-09-20 06:52:00,